Year,Month,Day,Hour,Minute,Value (Times are PST for temperature in C)
2013,03,11,00,00,6.00
2013,03,11,00,01,6.00
2013,03,11,00,02,6.00
2013,03,11,00,03,6.00
2013,03,11,00,04,6.00
2013,03,11,00,05,6.00
2013,03,11,00,06,6.00
2013,03,11,00,07,6.00
2013,03,11,00,08,6.00
2013,03,11,00,09,6.00
2013,03,11,00,10,6.00
2013,03,11,00,11,5.90
2013,03,11,00,12,5.90
2013,03,11,00,13,5.90
2013,03,11,00,14,5.90
2013,03,11,00,15,5.90
2013,03,11,00,16,5.90
2013,03,11,00,17,5.90
2013,03,11,00,18,5.90
2013,03,11,00,19,5.90
2013,03,11,00,20,5.80
2013,03,11,00,21,5.80
2013,03,11,00,22,5.80
2013,03,11,00,23,5.80
2013,03,11,00,24,5.80
2013,03,11,00,25,5.80
2013,03,11,00,26,5.80
2013,03,11,00,27,5.80
2013,03,11,00,28,5.70
2013,03,11,00,29,5.70
2013,03,11,00,30,5.70
2013,03,11,00,31,5.70
2013,03,11,00,32,5.70
2013,03,11,00,33,5.70
2013,03,11,00,34,5.70
2013,03,11,00,35,5.70
2013,03,11,00,36,5.70
2013,03,11,00,37,5.70
2013,03,11,00,38,5.70
2013,03,11,00,39,5.70
2013,03,11,00,40,5.70
2013,03,11,00,41,5.60
2013,03,11,00,42,5.60
2013,03,11,00,43,5.60
2013,03,11,00,44,5.60
2013,03,11,00,45,5.60
2013,03,11,00,46,5.60
2013,03,11,00,47,5.60
2013,03,11,00,48,5.50
2013,03,11,00,49,5.50
2013,03,11,00,50,5.50
2013,03,11,00,51,5.50
2013,03,11,00,52,5.50
2013,03,11,00,53,5.50
2013,03,11,00,54,5.50
2013,03,11,00,55,5.50
2013,03,11,00,56,5.50
2013,03,11,00,57,5.50
2013,03,11,00,58,5.50
2013,03,11,00,59,5.50
2013,03,11,01,00,5.50
2013,03,11,01,01,5.60
2013,03,11,01,02,5.60
2013,03,11,01,03,5.60
2013,03,11,01,04,5.60
2013,03,11,01,05,5.60
2013,03,11,01,06,5.60
2013,03,11,01,07,5.60
2013,03,11,01,08,5.60
2013,03,11,01,09,5.50
2013,03,11,01,10,5.50
2013,03,11,01,11,5.50
2013,03,11,01,12,5.50
2013,03,11,01,13,5.50
2013,03,11,01,14,5.60
2013,03,11,01,15,5.60
2013,03,11,01,16,5.60
2013,03,11,01,17,5.60
2013,03,11,01,18,5.60
2013,03,11,01,19,5.60
2013,03,11,01,20,5.60
2013,03,11,01,21,5.60
2013,03,11,01,22,5.60
2013,03,11,01,23,5.50
2013,03,11,01,24,5.50
2013,03,11,01,25,5.40
2013,03,11,01,26,5.30
2013,03,11,01,27,5.20
2013,03,11,01,28,5.10
2013,03,11,01,29,5.10
2013,03,11,01,30,5.10
2013,03,11,01,31,5.00
2013,03,11,01,32,4.90
2013,03,11,01,33,4.90
2013,03,11,01,34,4.80
2013,03,11,01,35,4.80
2013,03,11,01,36,4.70
2013,03,11,01,37,4.60
2013,03,11,01,38,4.60
2013,03,11,01,39,4.50
2013,03,11,01,40,4.50
2013,03,11,01,41,4.40
2013,03,11,01,42,4.40
2013,03,11,01,43,4.30
2013,03,11,01,44,4.30
2013,03,11,01,45,4.20
2013,03,11,01,46,4.20
2013,03,11,01,47,4.20
2013,03,11,01,48,4.20
2013,03,11,01,49,4.10
2013,03,11,01,50,4.10
2013,03,11,01,51,4.10
2013,03,11,01,52,4.00
2013,03,11,01,53,4.00
2013,03,11,01,54,4.00
2013,03,11,01,55,4.00
2013,03,11,01,56,4.00
2013,03,11,01,57,4.10
2013,03,11,01,58,4.10
2013,03,11,01,59,4.20
2013,03,11,02,00,4.20
2013,03,11,02,01,4.20
2013,03,11,02,02,4.20
2013,03,11,02,03,4.20
2013,03,11,02,04,4.30
2013,03,11,02,05,4.30
2013,03,11,02,06,4.30
2013,03,11,02,07,4.30
2013,03,11,02,08,4.30
2013,03,11,02,09,4.40
2013,03,11,02,10,4.40
2013,03,11,02,11,4.40
2013,03,11,02,12,4.40
2013,03,11,02,13,4.40
2013,03,11,02,14,4.40
2013,03,11,02,15,4.40
2013,03,11,02,16,4.40
2013,03,11,02,17,4.40
2013,03,11,02,18,4.40
2013,03,11,02,19,4.40
2013,03,11,02,20,4.40
2013,03,11,02,21,4.40
2013,03,11,02,22,4.40
2013,03,11,02,23,4.40
2013,03,11,02,24,4.40
2013,03,11,02,25,4.40
2013,03,11,02,26,4.40
2013,03,11,02,27,4.30
2013,03,11,02,28,4.30
2013,03,11,02,29,4.30
2013,03,11,02,30,4.20
2013,03,11,02,31,4.20
2013,03,11,02,32,4.20
2013,03,11,02,33,4.20
2013,03,11,02,34,4.20
2013,03,11,02,35,4.20
2013,03,11,02,36,4.20
2013,03,11,02,37,4.20
2013,03,11,02,38,4.20
2013,03,11,02,39,4.20
2013,03,11,02,40,4.20
2013,03,11,02,41,4.20
2013,03,11,02,42,4.20
2013,03,11,02,43,4.20
2013,03,11,02,44,4.20
2013,03,11,02,45,4.20
2013,03,11,02,46,4.20
2013,03,11,02,47,4.20
2013,03,11,02,48,4.20
2013,03,11,02,49,4.20
2013,03,11,02,50,4.20
2013,03,11,02,51,4.20
2013,03,11,02,52,4.20
2013,03,11,02,53,4.20
2013,03,11,02,54,4.20
2013,03,11,02,55,4.20
2013,03,11,02,56,4.20
2013,03,11,02,57,4.20
2013,03,11,02,58,4.20
2013,03,11,02,59,4.20
2013,03,11,03,00,4.20
2013,03,11,03,01,4.20
2013,03,11,03,02,4.20
2013,03,11,03,03,4.10
2013,03,11,03,04,4.10
2013,03,11,03,05,4.10
2013,03,11,03,06,4.00
2013,03,11,03,07,4.00
2013,03,11,03,08,4.00
2013,03,11,03,09,4.00
2013,03,11,03,10,3.90
2013,03,11,03,11,3.90
2013,03,11,03,12,3.90
2013,03,11,03,13,3.90
2013,03,11,03,14,3.90
2013,03,11,03,15,3.90
2013,03,11,03,16,3.90
2013,03,11,03,17,3.90
2013,03,11,03,18,3.90
2013,03,11,03,19,3.90
2013,03,11,03,20,3.90
2013,03,11,03,21,3.90
2013,03,11,03,22,3.90
2013,03,11,03,23,3.90
2013,03,11,03,24,3.90
2013,03,11,03,25,3.90
2013,03,11,03,26,3.90
2013,03,11,03,27,3.90
2013,03,11,03,28,3.80
2013,03,11,03,29,3.80
2013,03,11,03,30,3.80
2013,03,11,03,31,3.80
2013,03,11,03,32,3.80
2013,03,11,03,33,3.80
2013,03,11,03,34,3.80
2013,03,11,03,35,3.80
2013,03,11,03,36,3.80
2013,03,11,03,37,3.80
2013,03,11,03,38,3.80
2013,03,11,03,39,3.70
2013,03,11,03,40,3.70
2013,03,11,03,41,3.70
2013,03,11,03,42,3.80
2013,03,11,03,43,3.80
2013,03,11,03,44,3.80
2013,03,11,03,45,3.70
2013,03,11,03,46,3.70
2013,03,11,03,47,3.70
2013,03,11,03,48,3.70
2013,03,11,03,49,3.70
2013,03,11,03,50,3.70
2013,03,11,03,51,3.70
2013,03,11,03,52,3.70
2013,03,11,03,53,3.70
2013,03,11,03,54,3.60
2013,03,11,03,55,3.70
2013,03,11,03,56,3.70
2013,03,11,03,57,3.70
2013,03,11,03,58,3.70
2013,03,11,03,59,3.70
2013,03,11,04,00,3.70
2013,03,11,04,01,3.70
2013,03,11,04,02,3.70
2013,03,11,04,03,3.70
2013,03,11,04,04,3.70
2013,03,11,04,05,3.80
2013,03,11,04,06,3.80
2013,03,11,04,07,3.80
2013,03,11,04,08,3.80
2013,03,11,04,09,3.80
2013,03,11,04,10,3.70
2013,03,11,04,11,3.70
2013,03,11,04,12,3.70
2013,03,11,04,13,3.70
2013,03,11,04,14,3.70
2013,03,11,04,15,3.70
2013,03,11,04,16,3.70
2013,03,11,04,17,3.70
2013,03,11,04,18,3.70
2013,03,11,04,19,3.70
2013,03,11,04,20,3.80
2013,03,11,04,21,3.80
2013,03,11,04,22,3.80
2013,03,11,04,23,3.80
2013,03,11,04,24,3.80
2013,03,11,04,25,3.80
2013,03,11,04,26,3.80
2013,03,11,04,27,3.70
2013,03,11,04,28,3.70
2013,03,11,04,29,3.70
2013,03,11,04,30,3.70
2013,03,11,04,31,3.70
2013,03,11,04,32,3.60
2013,03,11,04,33,3.60
2013,03,11,04,34,3.60
2013,03,11,04,35,3.50
2013,03,11,04,36,3.50
2013,03,11,04,37,3.50
2013,03,11,04,38,3.50
2013,03,11,04,39,3.40
2013,03,11,04,40,3.40
2013,03,11,04,41,3.40
2013,03,11,04,42,3.40
2013,03,11,04,43,3.30
2013,03,11,04,44,3.30
2013,03,11,04,45,3.30
2013,03,11,04,46,3.30
2013,03,11,04,47,3.30
2013,03,11,04,48,3.30
2013,03,11,04,49,3.20
2013,03,11,04,50,3.20
2013,03,11,04,51,3.10
2013,03,11,04,52,3.10
2013,03,11,04,53,3.10
2013,03,11,04,54,3.10
2013,03,11,04,55,3.10
2013,03,11,04,56,3.10
2013,03,11,04,57,3.00
2013,03,11,04,58,2.90
2013,03,11,04,59,2.90
2013,03,11,05,00,2.90
2013,03,11,05,01,2.90
2013,03,11,05,02,2.90
2013,03,11,05,03,2.80
2013,03,11,05,04,2.80
2013,03,11,05,05,2.80
2013,03,11,05,06,2.80
2013,03,11,05,07,2.80
2013,03,11,05,08,2.80
2013,03,11,05,09,2.80
2013,03,11,05,10,2.70
2013,03,11,05,11,2.70
2013,03,11,05,12,2.70
2013,03,11,05,13,2.70
2013,03,11,05,14,2.70
2013,03,11,05,15,2.70
2013,03,11,05,16,2.70
2013,03,11,05,17,2.70
2013,03,11,05,18,2.70
2013,03,11,05,19,2.70
2013,03,11,05,20,2.70
2013,03,11,05,21,2.70
2013,03,11,05,22,2.80
2013,03,11,05,23,2.80
2013,03,11,05,24,2.80
2013,03,11,05,25,2.80
2013,03,11,05,26,2.80
2013,03,11,05,27,2.80
2013,03,11,05,28,2.80
2013,03,11,05,29,2.80
2013,03,11,05,30,2.90
2013,03,11,05,31,2.90
2013,03,11,05,32,2.90
2013,03,11,05,33,2.90
2013,03,11,05,34,2.90
2013,03,11,05,35,3.00
2013,03,11,05,36,3.10
2013,03,11,05,37,3.10
2013,03,11,05,38,3.10
2013,03,11,05,39,3.10
2013,03,11,05,40,3.10
2013,03,11,05,41,3.10
2013,03,11,05,42,3.20
2013,03,11,05,43,3.20
2013,03,11,05,44,3.20
2013,03,11,05,45,3.20
2013,03,11,05,46,3.20
2013,03,11,05,47,3.30
2013,03,11,05,48,3.30
2013,03,11,05,49,3.30
2013,03,11,05,50,3.30
2013,03,11,05,51,3.30
2013,03,11,05,52,3.30
2013,03,11,05,53,3.30
2013,03,11,05,54,3.30
2013,03,11,05,55,3.30
2013,03,11,05,56,3.40
2013,03,11,05,57,3.40
2013,03,11,05,58,3.40
2013,03,11,05,59,3.50
2013,03,11,06,00,3.50
2013,03,11,06,01,3.50
2013,03,11,06,02,3.60
2013,03,11,06,03,3.60
2013,03,11,06,04,3.60
2013,03,11,06,05,3.60
2013,03,11,06,06,3.60
2013,03,11,06,07,3.60
2013,03,11,06,08,3.70
2013,03,11,06,09,3.70
2013,03,11,06,10,3.70
2013,03,11,06,11,3.70
2013,03,11,06,12,3.70
2013,03,11,06,13,3.70
2013,03,11,06,14,3.70
2013,03,11,06,15,3.70
2013,03,11,06,16,3.70
2013,03,11,06,17,3.70
2013,03,11,06,18,3.70
2013,03,11,06,19,3.70
2013,03,11,06,20,3.70
2013,03,11,06,21,3.70
2013,03,11,06,22,3.70
2013,03,11,06,23,3.70
2013,03,11,06,24,3.70
2013,03,11,06,25,3.70
2013,03,11,06,26,3.70
2013,03,11,06,27,3.70
2013,03,11,06,28,3.70
2013,03,11,06,29,3.70
2013,03,11,06,30,3.70
2013,03,11,06,31,3.70
2013,03,11,06,32,3.70
2013,03,11,06,33,3.80
2013,03,11,06,34,3.80
2013,03,11,06,35,3.80
2013,03,11,06,36,3.80
2013,03,11,06,37,3.80
2013,03,11,06,38,3.80
2013,03,11,06,39,3.80
2013,03,11,06,40,3.80
2013,03,11,06,41,3.80
2013,03,11,06,42,3.90
2013,03,11,06,43,3.90
2013,03,11,06,44,3.90
2013,03,11,06,45,3.90
2013,03,11,06,46,3.90
2013,03,11,06,47,4.00
2013,03,11,06,48,4.00
2013,03,11,06,49,4.00
2013,03,11,06,50,4.00
2013,03,11,06,51,4.00
2013,03,11,06,52,4.10
2013,03,11,06,53,4.10
2013,03,11,06,54,4.10
2013,03,11,06,55,4.10
2013,03,11,06,56,4.10
2013,03,11,06,57,4.10
2013,03,11,06,58,4.10
2013,03,11,06,59,4.10
2013,03,11,07,00,4.20
2013,03,11,07,01,4.20
2013,03,11,07,02,4.20
2013,03,11,07,03,4.20
2013,03,11,07,04,4.20
2013,03,11,07,05,4.20
2013,03,11,07,06,4.20
2013,03,11,07,07,4.20
2013,03,11,07,08,4.20
2013,03,11,07,09,4.20
2013,03,11,07,10,4.20
2013,03,11,07,11,4.20
2013,03,11,07,12,4.20
2013,03,11,07,13,4.20
2013,03,11,07,14,4.20
2013,03,11,07,15,4.30
2013,03,11,07,16,4.30
2013,03,11,07,17,4.30
2013,03,11,07,18,4.40
2013,03,11,07,19,4.40
2013,03,11,07,20,4.40
2013,03,11,07,21,4.50
2013,03,11,07,22,4.50
2013,03,11,07,23,4.50
2013,03,11,07,24,4.60
2013,03,11,07,25,4.60
2013,03,11,07,26,4.60
2013,03,11,07,27,4.60
2013,03,11,07,28,4.60
2013,03,11,07,29,4.60
2013,03,11,07,30,4.70
2013,03,11,07,31,4.70
2013,03,11,07,32,4.70
2013,03,11,07,33,4.70
2013,03,11,07,34,4.80
2013,03,11,07,35,4.80
2013,03,11,07,36,4.80
2013,03,11,07,37,4.80
2013,03,11,07,38,4.80
2013,03,11,07,39,4.90
2013,03,11,07,40,4.90
2013,03,11,07,41,4.90
2013,03,11,07,42,4.90
2013,03,11,07,43,4.90
2013,03,11,07,44,4.90
2013,03,11,07,45,4.90
2013,03,11,07,46,4.90
2013,03,11,07,47,4.90
2013,03,11,07,48,4.90
2013,03,11,07,49,4.90
2013,03,11,07,50,4.90
2013,03,11,07,51,4.90
2013,03,11,07,52,4.90
2013,03,11,07,53,4.90
2013,03,11,07,54,4.90
2013,03,11,07,55,4.90
2013,03,11,07,56,4.90
2013,03,11,07,57,4.90
2013,03,11,07,58,4.90
2013,03,11,07,59,4.90
2013,03,11,08,00,4.90
2013,03,11,08,01,5.00
2013,03,11,08,02,5.10
2013,03,11,08,03,5.10
2013,03,11,08,04,5.10
2013,03,11,08,05,5.10
2013,03,11,08,06,5.10
2013,03,11,08,07,5.10
2013,03,11,08,08,5.10
2013,03,11,08,09,5.10
2013,03,11,08,10,5.10
2013,03,11,08,11,5.10
2013,03,11,08,12,5.10
2013,03,11,08,13,5.10
2013,03,11,08,14,5.10
2013,03,11,08,15,5.10
2013,03,11,08,16,5.10
2013,03,11,08,17,5.10
2013,03,11,08,18,5.10
2013,03,11,08,19,5.10
2013,03,11,08,20,5.10
2013,03,11,08,21,5.10
2013,03,11,08,22,5.10
2013,03,11,08,23,5.10
2013,03,11,08,24,5.10
2013,03,11,08,25,5.10
2013,03,11,08,26,5.20
2013,03,11,08,27,5.20
2013,03,11,08,28,5.20
2013,03,11,08,29,5.20
2013,03,11,08,30,5.20
2013,03,11,08,31,5.20
2013,03,11,08,32,5.20
2013,03,11,08,33,5.20
2013,03,11,08,34,5.20
2013,03,11,08,35,5.20
2013,03,11,08,36,5.30
2013,03,11,08,37,5.30
2013,03,11,08,38,5.30
2013,03,11,08,39,5.30
2013,03,11,08,40,5.30
2013,03,11,08,41,5.30
2013,03,11,08,42,5.30
2013,03,11,08,43,5.30
2013,03,11,08,44,5.30
2013,03,11,08,45,5.30
2013,03,11,08,46,5.30
2013,03,11,08,47,5.30
2013,03,11,08,48,5.30
2013,03,11,08,49,5.30
2013,03,11,08,50,5.30
2013,03,11,08,51,5.30
2013,03,11,08,52,5.30
2013,03,11,08,53,5.30
2013,03,11,08,54,5.30
2013,03,11,08,55,5.30
2013,03,11,08,56,5.30
2013,03,11,08,57,5.30
2013,03,11,08,58,5.40
2013,03,11,08,59,5.30
2013,03,11,09,00,5.30
2013,03,11,09,01,5.30
2013,03,11,09,02,5.30
2013,03,11,09,03,5.30
2013,03,11,09,04,5.30
2013,03,11,09,05,5.30
2013,03,11,09,06,5.30
2013,03,11,09,07,5.30
2013,03,11,09,08,5.40
2013,03,11,09,09,5.40
2013,03,11,09,10,5.40
2013,03,11,09,11,5.40
2013,03,11,09,12,5.40
2013,03,11,09,13,5.40
2013,03,11,09,14,5.40
2013,03,11,09,15,5.40
2013,03,11,09,16,5.40
2013,03,11,09,17,5.40
2013,03,11,09,18,5.40
2013,03,11,09,19,5.40
2013,03,11,09,20,5.40
2013,03,11,09,21,5.40
2013,03,11,09,22,5.40
2013,03,11,09,23,5.40
2013,03,11,09,24,5.40
2013,03,11,09,25,5.40
2013,03,11,09,26,5.40
2013,03,11,09,27,5.50
2013,03,11,09,28,5.50
2013,03,11,09,29,5.50
2013,03,11,09,30,5.50
2013,03,11,09,31,5.50
2013,03,11,09,32,5.50
2013,03,11,09,33,5.50
2013,03,11,09,34,5.60
2013,03,11,09,35,5.60
2013,03,11,09,36,5.60
2013,03,11,09,37,5.60
2013,03,11,09,38,5.60
2013,03,11,09,39,5.60
2013,03,11,09,40,5.70
2013,03,11,09,41,5.70
2013,03,11,09,42,5.70
2013,03,11,09,43,5.70
2013,03,11,09,44,5.70
2013,03,11,09,45,5.70
2013,03,11,09,46,5.70
2013,03,11,09,47,5.70
2013,03,11,09,48,5.70
2013,03,11,09,49,5.70
2013,03,11,09,50,5.70
2013,03,11,09,51,5.70
2013,03,11,09,52,5.70
2013,03,11,09,53,5.70
2013,03,11,09,54,5.70
2013,03,11,09,55,5.70
2013,03,11,09,56,5.70
2013,03,11,09,57,5.80
2013,03,11,09,58,5.80
2013,03,11,09,59,5.80
2013,03,11,10,00,5.90
2013,03,11,10,01,5.90
2013,03,11,10,02,6.00
2013,03,11,10,03,6.00
2013,03,11,10,04,6.00
2013,03,11,10,05,6.10
2013,03,11,10,06,6.10
2013,03,11,10,07,6.10
2013,03,11,10,08,6.10
2013,03,11,10,09,6.10
2013,03,11,10,10,6.20
2013,03,11,10,11,6.20
2013,03,11,10,12,6.20
2013,03,11,10,13,6.30
2013,03,11,10,14,6.30
2013,03,11,10,15,6.30
2013,03,11,10,16,6.30
2013,03,11,10,17,6.40
2013,03,11,10,18,6.40
2013,03,11,10,19,6.40
2013,03,11,10,20,6.40
2013,03,11,10,21,6.40
2013,03,11,10,22,6.60
2013,03,11,10,23,6.60
2013,03,11,10,24,6.70
2013,03,11,10,25,6.70
2013,03,11,10,26,6.80
2013,03,11,10,27,6.80
2013,03,11,10,28,6.80
2013,03,11,10,29,6.80
2013,03,11,10,30,6.80
2013,03,11,10,31,6.90
2013,03,11,10,32,6.90
2013,03,11,10,33,6.90
2013,03,11,10,34,6.80
2013,03,11,10,35,6.80
2013,03,11,10,36,6.80
2013,03,11,10,37,6.80
2013,03,11,10,38,6.80
2013,03,11,10,39,6.80
2013,03,11,10,40,6.80
2013,03,11,10,41,6.80
2013,03,11,10,42,6.80
2013,03,11,10,43,6.80
2013,03,11,10,44,6.80
2013,03,11,10,45,6.90
2013,03,11,10,46,6.90
2013,03,11,10,47,7.00
2013,03,11,10,48,7.00
2013,03,11,10,49,7.00
2013,03,11,10,50,7.00
2013,03,11,10,51,7.00
2013,03,11,10,52,7.00
2013,03,11,10,53,7.00
2013,03,11,10,54,6.90
2013,03,11,10,55,6.90
2013,03,11,10,56,6.90
2013,03,11,10,57,7.00
2013,03,11,10,58,7.10
2013,03,11,10,59,7.10
2013,03,11,11,00,7.20
2013,03,11,11,01,7.30
2013,03,11,11,02,7.40
2013,03,11,11,03,7.40
2013,03,11,11,04,7.40
2013,03,11,11,05,7.30
2013,03,11,11,06,7.40
2013,03,11,11,07,7.40
2013,03,11,11,08,7.30
2013,03,11,11,09,7.30
2013,03,11,11,10,7.40
2013,03,11,11,11,7.50
2013,03,11,11,12,7.50
2013,03,11,11,13,7.50
2013,03,11,11,14,7.40
2013,03,11,11,15,7.40
2013,03,11,11,16,7.40
2013,03,11,11,17,7.30
2013,03,11,11,18,7.30
2013,03,11,11,19,7.30
2013,03,11,11,20,7.30
2013,03,11,11,21,7.30
2013,03,11,11,22,7.30
2013,03,11,11,23,7.30
2013,03,11,11,24,7.30
2013,03,11,11,25,7.30
2013,03,11,11,26,7.30
2013,03,11,11,27,7.30
2013,03,11,11,28,7.30
2013,03,11,14,18,9.40
2013,03,11,14,19,9.40
2013,03,11,14,20,9.40
2013,03,11,14,21,9.30
2013,03,11,14,22,9.30
2013,03,11,14,23,9.20
2013,03,11,14,24,9.20
2013,03,11,14,25,9.20
2013,03,11,14,26,9.20
2013,03,11,14,27,9.20
2013,03,11,14,28,9.20
2013,03,11,14,29,9.20
2013,03,11,14,30,9.20
2013,03,11,14,31,9.20
2013,03,11,14,32,9.20
2013,03,11,14,33,9.20
2013,03,11,14,34,9.20
2013,03,11,14,35,9.20
2013,03,11,14,36,9.20
2013,03,11,14,37,9.20
2013,03,11,14,38,9.20
2013,03,11,14,39,9.20
2013,03,11,14,40,9.20
2013,03,11,14,41,9.20
2013,03,11,14,42,9.20
2013,03,11,14,43,9.00
2013,03,11,14,44,8.90
2013,03,11,14,45,9.00
2013,03,11,14,46,9.00
2013,03,11,14,47,9.00
2013,03,11,14,48,9.00
2013,03,11,14,49,9.00
2013,03,11,14,50,9.10
2013,03,11,14,51,9.20
2013,03,11,14,52,9.20
2013,03,11,14,53,9.30
2013,03,11,14,54,9.30
2013,03,11,14,55,9.30
2013,03,11,14,56,9.40
2013,03,11,14,57,9.30
2013,03,11,14,58,9.20
2013,03,11,14,59,9.20
2013,03,11,15,00,9.20
2013,03,11,15,01,9.20
2013,03,11,15,02,9.20
2013,03,11,15,03,9.20
2013,03,11,15,04,9.20
2013,03,11,15,05,9.20
2013,03,11,15,06,9.20
2013,03,11,15,07,9.20
2013,03,11,15,08,9.20
2013,03,11,15,09,9.20
2013,03,11,15,10,9.20
2013,03,11,15,11,9.20
2013,03,11,15,12,9.10
2013,03,11,15,13,9.20
2013,03,11,15,14,9.10
2013,03,11,15,15,9.00
2013,03,11,15,16,9.00
2013,03,11,15,17,8.90
2013,03,11,15,18,9.00
2013,03,11,15,19,9.00
2013,03,11,15,20,9.00
2013,03,11,15,21,9.00
2013,03,11,15,22,9.00
2013,03,11,15,23,9.00
2013,03,11,15,24,9.10
2013,03,11,15,25,9.10
2013,03,11,15,26,9.20
2013,03,11,15,27,9.20
2013,03,11,15,28,9.20
2013,03,11,15,29,9.20
2013,03,11,15,30,9.20
2013,03,11,15,31,9.20
2013,03,11,15,32,9.20
2013,03,11,15,33,9.20
2013,03,11,15,34,9.20
2013,03,11,15,35,9.20
2013,03,11,15,36,9.20
2013,03,11,15,37,9.20
2013,03,11,15,38,9.20
2013,03,11,15,39,9.20
2013,03,11,15,40,9.10
2013,03,11,15,41,9.10
2013,03,11,15,42,9.00
2013,03,11,15,43,9.00
2013,03,11,15,44,8.90
2013,03,11,15,45,8.90
2013,03,11,15,46,9.00
2013,03,11,15,47,9.00
2013,03,11,15,48,9.00
2013,03,11,15,49,9.00
2013,03,11,15,50,8.90
2013,03,11,15,51,8.80
2013,03,11,15,52,8.80
2013,03,11,15,53,8.80
2013,03,11,15,54,8.70
2013,03,11,15,55,8.80
2013,03,11,15,56,8.80
2013,03,11,15,57,8.90
2013,03,11,15,58,8.90
2013,03,11,15,59,9.00
2013,03,11,16,00,9.00
2013,03,11,16,01,9.00
2013,03,11,16,02,9.10
2013,03,11,16,03,9.10
2013,03,11,16,04,9.10
2013,03,11,16,05,9.10
2013,03,11,16,06,9.20
2013,03,11,16,07,9.20
2013,03,11,16,08,9.20
2013,03,11,16,09,9.20
2013,03,11,16,10,9.20
2013,03,11,16,11,9.20
2013,03,11,16,12,9.20
2013,03,11,16,13,9.20
2013,03,11,16,14,9.10
2013,03,11,16,15,9.00
2013,03,11,16,16,9.00
2013,03,11,16,17,8.90
2013,03,11,16,18,8.90
2013,03,11,16,19,8.80
2013,03,11,16,20,8.80
2013,03,11,16,21,8.70
2013,03,11,16,22,8.70
2013,03,11,16,23,8.70
2013,03,11,16,24,8.70
2013,03,11,16,25,8.70
2013,03,11,16,26,8.70
2013,03,11,16,27,8.70
2013,03,11,16,28,8.70
2013,03,11,16,29,8.70
2013,03,11,16,30,8.60
2013,03,11,16,31,8.60
2013,03,11,16,32,8.70
2013,03,11,16,33,8.60
2013,03,11,16,34,8.60
2013,03,11,16,35,8.60
2013,03,11,16,36,8.50
2013,03,11,16,37,8.50
2013,03,11,16,38,8.50
2013,03,11,16,39,8.50
2013,03,11,16,40,8.50
2013,03,11,16,41,8.50
2013,03,11,16,42,8.50
2013,03,11,16,43,8.50
2013,03,11,16,44,8.50
2013,03,11,16,45,8.50
2013,03,11,16,46,8.50
2013,03,11,16,47,8.50
2013,03,11,16,48,8.50
2013,03,11,16,49,8.50
2013,03,11,16,50,8.50
2013,03,11,16,51,8.50
2013,03,11,16,52,8.50
2013,03,11,16,53,8.50
2013,03,11,16,54,8.50
2013,03,11,16,55,8.50
2013,03,11,16,56,8.50
2013,03,11,16,57,8.50
2013,03,11,16,58,8.50
2013,03,11,16,59,8.40
2013,03,11,17,00,8.40
2013,03,11,17,01,8.40
2013,03,11,17,02,8.30
2013,03,11,17,03,8.30
2013,03,11,17,04,8.30
2013,03,11,17,05,8.20
2013,03,11,17,06,8.20
2013,03,11,17,07,8.20
2013,03,11,17,08,8.20
2013,03,11,17,09,8.20
2013,03,11,17,10,8.20
2013,03,11,17,11,8.20
2013,03,11,17,12,8.20
2013,03,11,17,13,8.20
2013,03,11,17,14,8.20
2013,03,11,17,15,8.20
2013,03,11,17,16,8.20
2013,03,11,17,17,8.20
2013,03,11,17,18,8.20
2013,03,11,17,19,8.20
2013,03,11,17,20,8.20
2013,03,11,17,21,8.20
2013,03,11,17,22,8.20
2013,03,11,17,23,8.20
2013,03,11,17,24,8.20
2013,03,11,17,25,8.20
2013,03,11,17,26,8.20
2013,03,11,17,27,8.20
2013,03,11,17,28,8.20
2013,03,11,17,29,8.20
2013,03,11,17,30,8.20
2013,03,11,17,31,8.20
2013,03,11,17,32,8.20
2013,03,11,17,33,8.20
2013,03,11,17,34,8.20
2013,03,11,17,35,8.20
2013,03,11,17,36,8.20
2013,03,11,17,37,8.20
2013,03,11,17,38,8.20
2013,03,11,17,39,8.20
2013,03,11,17,40,8.20
2013,03,11,17,41,8.20
2013,03,11,17,42,8.20
2013,03,11,17,43,8.20
2013,03,11,17,44,8.20
2013,03,11,17,45,8.20
2013,03,11,17,46,8.20
2013,03,11,17,47,8.20
2013,03,11,17,48,8.20
2013,03,11,17,49,8.20
2013,03,11,17,50,8.20
2013,03,11,17,51,8.20
2013,03,11,17,52,8.20
2013,03,11,17,53,8.20
2013,03,11,17,54,8.20
2013,03,11,17,55,8.20
2013,03,11,17,56,8.20
2013,03,11,17,57,8.20
2013,03,11,17,58,8.20
2013,03,11,17,59,8.20
2013,03,11,18,00,8.20
2013,03,11,18,01,8.20
2013,03,11,18,02,8.20
2013,03,11,18,03,8.20
2013,03,11,18,04,8.20
2013,03,11,18,05,8.20
2013,03,11,18,06,8.20
2013,03,11,18,07,8.20
2013,03,11,18,08,8.20
2013,03,11,18,09,8.20
2013,03,11,18,10,8.20
2013,03,11,18,11,8.20
2013,03,11,18,12,8.10
2013,03,11,18,13,8.10
2013,03,11,18,14,8.10
2013,03,11,18,15,8.10
2013,03,11,18,16,8.10
2013,03,11,18,17,8.00
2013,03,11,18,18,8.00
2013,03,11,18,19,8.00
2013,03,11,18,20,8.00
2013,03,11,18,21,8.00
2013,03,11,18,22,8.00
2013,03,11,18,23,8.00
2013,03,11,18,24,8.00
2013,03,11,18,25,7.90
2013,03,11,18,26,7.90
2013,03,11,18,27,7.90
2013,03,11,18,28,7.90
2013,03,11,18,29,7.90
2013,03,11,18,30,7.90
2013,03,11,18,31,7.90
2013,03,11,18,32,7.90
2013,03,11,18,33,7.80
2013,03,11,18,34,7.80
2013,03,11,18,35,7.80
2013,03,11,18,36,7.80
2013,03,11,18,37,7.80
2013,03,11,18,38,7.80
2013,03,11,18,39,7.80
2013,03,11,18,40,7.80
2013,03,11,18,41,7.80
2013,03,11,18,42,7.80
2013,03,11,18,43,7.80
2013,03,11,18,44,7.80
2013,03,11,18,45,7.80
2013,03,11,18,46,7.80
2013,03,11,18,47,7.80
2013,03,11,18,48,7.80
2013,03,11,18,49,7.80
2013,03,11,18,50,7.80
2013,03,11,18,51,7.80
2013,03,11,18,52,7.80
2013,03,11,18,53,7.80
2013,03,11,18,54,7.80
2013,03,11,18,55,7.80
2013,03,11,18,56,7.80
2013,03,11,18,57,7.80
2013,03,11,18,58,7.70
2013,03,11,18,59,7.70
2013,03,11,19,00,7.70
2013,03,11,19,01,7.70
2013,03,11,19,02,7.70
2013,03,11,19,03,7.70
2013,03,11,19,04,7.70
2013,03,11,19,05,7.70
2013,03,11,19,06,7.60
2013,03,11,19,07,7.60
2013,03,11,19,08,7.60
2013,03,11,19,09,7.60
2013,03,11,19,10,7.60
2013,03,11,19,11,7.60
2013,03,11,19,12,7.60
2013,03,11,19,13,7.60
2013,03,11,19,14,7.60
2013,03,11,19,15,7.50
2013,03,11,19,16,7.50
2013,03,11,19,17,7.50
2013,03,11,19,18,7.50
2013,03,11,19,19,7.40
2013,03,11,19,20,7.40
2013,03,11,19,21,7.40
2013,03,11,19,22,7.40
2013,03,11,19,23,7.40
2013,03,11,19,24,7.40
2013,03,11,19,25,7.30
2013,03,11,19,26,7.30
2013,03,11,19,27,7.30
2013,03,11,19,28,7.30
2013,03,11,19,29,7.30
2013,03,11,19,30,7.30
2013,03,11,19,31,7.30
2013,03,11,19,32,7.30
2013,03,11,19,33,7.30
2013,03,11,19,34,7.30
2013,03,11,19,35,7.30
2013,03,11,19,36,7.30
2013,03,11,19,37,7.30
2013,03,11,19,38,7.30
2013,03,11,19,39,7.30
2013,03,11,19,40,7.30
2013,03,11,19,41,7.30
2013,03,11,19,42,7.30
2013,03,11,19,43,7.30
2013,03,11,19,44,7.30
2013,03,11,19,45,7.20
2013,03,11,19,46,7.20
2013,03,11,19,47,7.20
2013,03,11,19,48,7.20
2013,03,11,19,49,7.20
2013,03,11,19,50,7.20
2013,03,11,19,51,7.20
2013,03,11,19,52,7.20
2013,03,11,19,53,7.20
2013,03,11,19,54,7.20
2013,03,11,19,55,7.20
2013,03,11,19,56,7.20
2013,03,11,19,57,7.20
2013,03,11,19,58,7.20
2013,03,11,19,59,7.20
2013,03,11,20,00,7.20
2013,03,11,20,01,7.20
2013,03,11,20,02,7.20
2013,03,11,20,03,7.10
2013,03,11,20,04,7.10
2013,03,11,20,05,7.10
2013,03,11,20,06,7.10
2013,03,11,20,07,7.10
2013,03,11,20,08,7.10
2013,03,11,20,09,7.10
2013,03,11,20,10,7.10
2013,03,11,20,11,7.10
2013,03,11,20,12,7.10
2013,03,11,20,13,7.10
2013,03,11,20,14,7.10
2013,03,11,20,15,7.00
2013,03,11,20,16,7.00
2013,03,11,20,17,7.00
2013,03,11,20,18,7.00
2013,03,11,20,19,7.00
2013,03,11,20,20,7.00
2013,03,11,20,21,7.00
2013,03,11,20,22,7.00
2013,03,11,20,23,7.00
2013,03,11,20,24,7.00
2013,03,11,20,25,6.90
2013,03,11,20,26,6.90
2013,03,11,20,27,6.90
2013,03,11,20,28,6.90
2013,03,11,20,29,6.90
2013,03,11,20,30,6.90
2013,03,11,20,31,6.90
2013,03,11,20,32,6.90
2013,03,11,20,33,6.90
2013,03,11,20,34,6.90
2013,03,11,20,35,6.90
2013,03,11,20,36,6.90
2013,03,11,20,37,6.80
2013,03,11,20,38,6.80
2013,03,11,20,39,6.80
2013,03,11,20,40,6.80
2013,03,11,20,41,6.80
2013,03,11,20,42,6.80
2013,03,11,20,43,6.80
2013,03,11,20,44,6.80
2013,03,11,20,45,6.80
2013,03,11,20,46,6.80
2013,03,11,20,47,6.80
2013,03,11,20,48,6.80
2013,03,11,20,49,6.80
2013,03,11,20,50,6.80
2013,03,11,20,51,6.80
2013,03,11,20,52,6.80
2013,03,11,20,53,6.80
2013,03,11,20,54,6.80
2013,03,11,20,55,6.80